Погода в Посёлке БАМ

Россия / Амурская область     54°07′04″N   123°41′54″E
темп.,
°C
ветер,
м/с
пор.,
м/с
влажн.,
%
обл.,
%
осадки,
мм/ч
давл.,
гПа
погр.,
м
11 апреля, вс
вс1100:00−8ссз3971100 0.0 1023467
03:00−11сз26752 0.0 1025204
06:00−15зсз11925 0.0 102811
09:00−7ссз465286 0.0 10281174
12:00−5ссз3546100 0.0 10282200
15:00−5ссз2447100 0.0 10271698
18:00−5св346382 0.0 10271023
21:00−10всв2779100 0.0 1030172
12 апреля, пн
пн1200:00−12ссв1190100 0.0 103123
03:00−13ссв1194100 0.0 103113
06:00−15с11975 0.0 103111
09:00−9ссз25590 0.0 10291055
12:00−6ссз4644100 0.0 10272162
15:00−5с4648100 0.0 10242014
18:00−6с3657100 0.0 10241576
21:00−9зсз2779100 0.0 1024164
13 апреля, вт
вт1300:00−12сз139161 0.0 102353
03:00−14сз119510 0.0 102219
06:00−15сз119745 0.0 102216
09:00−6с595344 0.0 10191657
12:00−4с4745100 0.0 10172221
15:00−3с4744100 0.1 10152148
18:00−3ссз255392 0.0 10141511
21:00−11ссз119147 0.0 101510
14 апреля, ср
ср1400:00−13св00955 0.0 10149
03:00−14св11965 0.0 10139
06:00−15всв119722 0.0 101310
09:00−6ссв0063100 0.0 1011224
12:00−1з0149100 0.0 1009923
15:000ссз2249100 0.0 10091337
18:00−1зюз0160100 0.0 100947
21:00−6ююв0086100 0.0 101110
15 апреля, чт
чт1500:00−8св0092100 0.0 101110
03:00−9св119598 0.0 101110
06:00−10св119768 0.0 101110
09:00−2св126981 0.0 1009333
12:00+2всв2451100 0.0 10081726
15:00+3всв3445100 0.1 10061799
18:00+1в3663100 0.1 1007398
21:00−4св2494100 0.1 100998